Temp
8 8 9 10 8 8 8 8 8 8 8 8 8 9 10 9 9 10 10 9 9 9 9 9 9 9 9 9 9 9 8 8 8 7 7 7 7 7 7 6 6 6 6 6
7 8 8 7 7 7 7 7 7 7 8 8 8 9 9 9 9 10 11 10 9 9 9 9 9 9 9 8 8 8 8 8 7 7 6 6 6 6 6 6 6 5 5 6
8 8 8 8 7 7 7 7 7 7 7 7 7 8 8 9 9 10 10 10 9 9 9 9 9 8 8 8 8 8 8 8 8 7 6 6 6 6 6 5 5 5 5 5
6 7 7 7 7 6 6 6 6 6 6 6 6 6 8 9 8 9 9 9 9 8 8 9 9 8 8 8 8 8 7 7 7 7 7 5 5 5 5 5 5 5 5 4
7 7 7 7 7 6 6 6 6 6 6 5 5 5 6 7 7 8 8 8 8 8 8 8 8 8 8 7 7 7 7 7 6 6 6 5 5 4 4 4 4 5 4 4
5 6 6 7 7 6 6 5 5 4 4 1 6 6 5 6 7 7 7 7 7 7 8 7 7 7 8 8 7 7 7 7 6 6 6 5 4 4 4 4 4 3 3 3
4 5 5 5 6 5 5 4 2 -1 -2 -0 4 4 5 5 6 6 6 6 6 7 7 7 7 7 6 6 6 6 6 6 6 6 6 5 4 4 4 4 4 3 3 3
4 3 5 5 5 6 5 5 5 -2 -3 0 3 3 3 4 4 5 5 6 6 6 6 6 6 6 6 6 6 6 6 6 6 6 6 5 4 4 3 3 3 3 3 3
4 3 5 5 4 4 3 3 5 4 2 1 3 1 1 3 3 4 4 5 5 5 5 6 5 5 5 5 5 5 4 4 4 3 3 3 2 2 2 2 2 2 2 2
5 4 3 4 3 2 3 4 2 3 -2 -0 1 1 3 4 4 3 3 3 4 4 4 5 4 4 3 3 3 3 2 2 2 1 1 1 1 1 1 1 2 2 2 2
3 4 1 1 1 3 1 2 3 3 3 -3 -2 2 5 5 4 3 3 3 3 3 3 2 2 2 2 2 2 2 2 1 1 1 1 1 2 2 2 2 2 2 2 2
2 3 2 2 1 2 1 2 2 3 1 3 3 2 4 3 3 2 1 2 2 2 2 2 2 2 2 2 2 2 2 2 2 2 2 2 2 3 3 3 3 3 2 2
2 2 0 -0 -0 1 1 1 2 3 3 2 0 1 4 1 1 1 1 0 1 1 1 1 1 2 1 1 1 2 2 2 2 1 2 2 1 1 1 1 1 0 0 0
2 2 2 1 3 3 1 2 1 2 2 2 3 3 3 3 3 2 1 0 0 0 0 0 0 -0 -0 -0 -0 -1 -1 -1 -1 -1 -1 -1 -1 -1 -1 -1 -2 -2 -2 -2
1 1 1 1 2 3 3 4 3 1 2 1 2 2 2 2 2 2 1 1 0 0 0 -0 -0 -0 -0 -1 -1 -1 -1 -1 -2 -2 -2 -3 -3 -3 -3 -3 -3 -3 -3 -3
1 1 1 0 1 1 1 2 1 1 1 1 1 1 1 1 0 0 0 0 -0 -1 -2 -2 -2 -2 -2 -2 -3 -3 -3 -3 -3 -3 -3 -3 -3 -3 -3 -3 -3 -3 -3 -3
1 1 0 -1 -0 -0 -0 0 0 1 1 1 0 1 1 1 -0 -0 -1 -2 -3 -3 -4 -4 -4 -5 -5 -5 -5 -5 -5 -5 -4 -4 -4 -4 -4 -4 -3 -3 -3 -3 -3 -3
-0 -1 -1 -0 -2 -4 -1 -0 0 0 0 0 1 0 -0 -1 -2 -3 -3 -4 -4 -5 -6 -7 -7 -6 -6 -6 -6 -6 -5 -5 -5 -5 -5 -5 -5 -4 -4 -4 -4 -4 -4 -4
-1 -2 -2 -2 -3 -2 -2 -2 -2 -1 -1 -1 -1 -2 -2 -3 -3 -4 -4 -5 -6 -7 -8 -8 -7 -7 -7 -7 -6 -6 -6 -6 -6 -6 -6 -7 -7 -7 -7 -7 -7 -7 -7 -6
-3 -3 -3 -4 -4 -5 -3 -3 -4 -3 -3 -3 -4 -4 -4 -5 -5 -6 -6 -8 -9 -8 -8 -8 -8 -8 -7 -7 -7 -7 -7 -7 -7 -8 -9 -9 -9 -9 -8 -9 -9 -9 -9 -9
-6 -5 -5 -5 -5 -6 -6 -6 -6 -6 -5 -4 -5 -5 -6 -6 -7 -8 -8 -8 -8 -8 -8 -8 -8 -8 -8 -8 -8 -8 -8 -8 -9 -9 -10 -9 -9 -9 -9 -10 -10 -9 -9 -9
-6 -6 -7 -7 -7 -7 -6 -7 -6 -7 -6 -6 -6 -7 -7 -8 -8 -8 -8 -9 -9 -9 -9 -9 -9 -9 -9 -9 -9 -9 -9 -10 -10 -10 -10 -10 -10 -10 -10 -10 -10 -10 -10 -10
-7 -7 -6 -7 -7 -7 -7 -7 -8 -8 -7 -7 -8 -8 -8 -8 -8 -9 -9 -9 -9 -9 -9 -9 -9 -10 -10 -10 -10 -10 -10 -10 -11 -11 -10 -10 -10 -10 -10 -10 -9 -9 -9 -10
-7 -7 -7 -7 -8 -8 -8 -8 -8 -8 -8 -9 -9 -9 -9 -9 -10 -10 -10 -10 -10 -10 -10 -10 -10 -10 -10 -10 -11 -11 -10 -11 -11 -11 -11 -10 -10 -10 -10 -10 -10 -9 -9 -10
-8 -8 -8 -8 -8 -8 -8 -8 -8 -9 -9 -10 -10 -10 -10 -10 -11 -11 -11 -11 -11 -11 -11 -11 -11 -11 -11 -11 -11 -11 -11 -11 -11 -11 -11 -11 -10 -10 -10 -10 -10 -10 -10 -11
-8 -8 -9 -9 -9 -9 -9 -9 -9 -9 -10 -10 -11 -11 -11 -11 -11 -11 -11 -11 -11 -11 -11 -11 -11 -12 -12 -12 -12 -12 -12 -12 -12 -12 -11 -11 -11 -10 -10 -10 -10 -10 -11 -10
Height
3121 3122 3123 3127 3131 3132 3132 3133 3134 3134 3135 3135 3134 3133 3136 3137 3135 3135 3136 3137 3139 3140 3140 3140 3141 3142 3143 3145 3146 3148 3149 3150 3151 3151 3151 3151 3150 3150 3150 3151 3152 3151 3151 3151
3116 3115 3123 3124 3126 3128 3129 3130 3131 3132 3132 3131 3131 3130 3132 3130 3128 3127 3127 3129 3131 3132 3134 3136 3138 3138 3140 3140 3142 3143 3144 3146 3147 3147 3147 3147 3147 3147 3147 3148 3148 3148 3147 3146
3109 3113 3115 3118 3121 3124 3125 3126 3129 3130 3129 3128 3126 3126 3127 3126 3125 3124 3124 3125 3126 3128 3129 3132 3133 3135 3136 3136 3137 3138 3139 3139 3141 3142 3141 3143 3142 3143 3143 3142 3141 3141 3141 3141
3105 3108 3110 3113 3116 3120 3121 3123 3125 3127 3127 3126 3125 3125 3124 3123 3120 3120 3121 3121 3122 3123 3125 3127 3129 3130 3131 3131 3132 3132 3132 3133 3134 3136 3135 3136 3136 3136 3136 3136 3135 3135 3136 3135
3098 3101 3104 3107 3111 3114 3117 3119 3122 3123 3123 3123 3121 3124 3117 3117 3118 3118 3119 3119 3119 3120 3121 3123 3125 3126 3127 3127 3127 3127 3127 3127 3128 3130 3130 3131 3131 3132 3131 3130 3130 3130 3130 3129
3094 3097 3099 3103 3105 3110 3112 3116 3118 3120 3122 3121 3113 3117 3115 3114 3114 3115 3117 3118 3118 3119 3119 3120 3120 3121 3121 3121 3121 3121 3122 3122 3123 3124 3124 3126 3125 3125 3124 3125 3124 3125 3124 3124
3089 3090 3092 3097 3101 3104 3106 3110 3116 3122 3122 3115 3110 3112 3109 3109 3110 3112 3114 3115 3116 3116 3116 3117 3117 3118 3119 3119 3119 3119 3119 3120 3120 3120 3120 3120 3119 3119 3119 3118 3118 3117 3117 3117
3079 3085 3085 3087 3091 3094 3097 3102 3105 3116 3116 3107 3107 3105 3102 3105 3107 3108 3110 3112 3113 3113 3114 3114 3114 3115 3115 3116 3116 3116 3116 3116 3116 3116 3115 3114 3114 3114 3114 3113 3112 3111 3110 3110
3072 3076 3079 3080 3084 3091 3092 3094 3099 3101 3104 3105 3102 3101 3100 3101 3103 3104 3106 3107 3108 3109 3110 3111 3111 3110 3110 3110 3110 3110 3110 3110 3110 3110 3110 3110 3109 3109 3108 3107 3106 3106 3105 3104
3066 3070 3071 3076 3079 3083 3085 3087 3092 3096 3102 3102 3093 3092 3089 3093 3096 3098 3100 3102 3104 3105 3106 3106 3105 3106 3106 3107 3107 3107 3107 3107 3107 3106 3106 3106 3105 3104 3102 3101 3100 3099 3098 3096
3061 3065 3067 3070 3068 3071 3077 3078 3083 3086 3086 3087 3090 3083 3083 3087 3091 3093 3096 3099 3100 3100 3102 3102 3103 3103 3103 3103 3103 3103 3103 3103 3103 3102 3101 3100 3099 3097 3095 3094 3093 3091 3088 3087
3053 3057 3060 3061 3063 3068 3070 3072 3074 3075 3077 3077 3077 3078 3079 3082 3084 3089 3092 3095 3096 3098 3098 3099 3099 3099 3100 3100 3100 3099 3098 3097 3096 3094 3093 3091 3090 3087 3085 3082 3080 3077 3075 3073
3045 3049 3054 3059 3061 3062 3063 3065 3068 3070 3070 3069 3074 3076 3076 3078 3082 3085 3088 3091 3092 3093 3094 3094 3094 3094 3094 3094 3093 3092 3091 3089 3087 3085 3083 3081 3078 3075 3073 3069 3066 3064 3061 3059
3040 3042 3043 3044 3046 3051 3053 3057 3061 3064 3064 3066 3066 3069 3073 3076 3077 3079 3082 3085 3087 3088 3088 3087 3087 3086 3085 3084 3082 3080 3078 3077 3075 3072 3069 3067 3065 3063 3061 3059 3056 3054 3052 3049
3038 3039 3040 3041 3045 3047 3048 3051 3054 3055 3059 3062 3063 3066 3069 3074 3076 3076 3078 3079 3081 3081 3081 3080 3078 3076 3075 3073 3072 3071 3070 3067 3065 3064 3062 3059 3057 3055 3052 3049 3046 3043 3040 3038
3033 3034 3036 3039 3042 3044 3045 3046 3048 3052 3054 3057 3059 3061 3065 3068 3069 3070 3072 3072 3074 3074 3074 3074 3073 3071 3070 3069 3067 3065 3063 3060 3058 3055 3053 3051 3048 3045 3043 3039 3036 3033 3030 3028
3030 3031 3033 3035 3037 3040 3041 3041 3044 3047 3048 3051 3051 3055 3057 3059 3061 3062 3063 3064 3065 3066 3066 3066 3066 3065 3063 3062 3061 3059 3056 3054 3051 3048 3045 3042 3038 3035 3031 3028 3024 3021 3018 3014
3023 3025 3028 3030 3033 3037 3029 3034 3037 3039 3041 3043 3045 3047 3049 3051 3052 3053 3054 3057 3058 3059 3059 3059 3059 3058 3056 3055 3053 3052 3048 3046 3042 3039 3036 3032 3028 3024 3020 3015 3011 3006 3003 3001
3016 3019 3022 3025 3026 3026 3024 3025 3029 3031 3033 3035 3037 3038 3040 3042 3044 3046 3047 3048 3050 3051 3053 3054 3052 3051 3050 3048 3046 3043 3040 3036 3032 3029 3026 3021 3016 3011 3007 3003 2999 2994 2988 2984
3009 3012 3018 3020 3021 3021 3016 3017 3020 3023 3027 3027 3030 3032 3034 3037 3038 3041 3041 3042 3044 3046 3046 3046 3044 3041 3040 3038 3036 3033 3030 3027 3023 3019 3016 3012 3007 3002 2996 2991 2987 2984 2979 2973
2998 3003 3006 3009 3011 3011 3010 3013 3016 3022 3024 3022 3025 3028 3030 3032 3035 3036 3037 3038 3040 3040 3039 3038 3036 3035 3033 3031 3029 3026 3022 3019 3015 3012 3009 3004 2998 2992 2986 2982 2978 2973 2968 2964
2991 2995 2999 3002 3005 3008 3010 3013 3017 3018 3018 3022 3024 3026 3028 3031 3033 3034 3035 3035 3036 3035 3033 3032 3030 3028 3025 3022 3019 3016 3013 3010 3007 3004 3001 2996 2990 2984 2979 2974 2969 2964 2959 2955
2990 2991 2994 2999 3001 3003 3006 3010 3013 3015 3018 3021 3023 3025 3027 3029 3029 3030 3030 3030 3029 3028 3026 3024 3022 3020 3017 3013 3009 3006 3003 3001 2998 2996 2992 2987 2982 2976 2971 2966 2962 2956 2951 2946
2984 2987 2991 2996 3000 3003 3006 3009 3011 3013 3015 3017 3020 3021 3022 3023 3024 3024 3023 3022 3021 3020 3019 3017 3015 3012 3009 3005 3002 2999 2996 2993 2991 2988 2985 2980 2975 2969 2964 2960 2954 2948 2943 2936
2984 2988 2991 2993 2997 3001 3004 3006 3008 3010 3012 3013 3015 3016 3017 3016 3017 3017 3016 3016 3015 3013 3011 3008 3006 3002 2999 2996 2994 2991 2989 2986 2984 2980 2977 2972 2967 2961 2956 2952 2947 2941 2936 2928
2983 2988 2991 2991 2994 2997 3000 3002 3004 3006 3007 3008 3009 3009 3010 3010 3009 3008 3008 3007 3006 3004 3000 2998 2996 2993 2991 2989 2986 2984 2981 2978 2976 2973 2969 2964 2959 2955 2950 2945 2941 2936 2930 2925
Wind_Speed
20 22 21 15 14 14 11 11 10 9 10 16 19 19 10 8 15 17 16 16 16 15 16 19 17 15 15 13 12 11 11 12 12 12 12 12 14 15 16 15 16 17 18 18
24 26 16 17 16 19 18 17 17 15 15 18 18 20 16 10 9 13 20 21 22 23 21 20 19 18 15 13 12 11 12 13 14 15 16 15 16 16 17 17 16 17 19 20
26 17 21 22 21 21 19 20 17 16 17 17 20 17 11 9 9 13 12 19 26 24 22 20 20 17 16 16 16 16 17 18 18 18 20 18 19 18 17 17 19 20 21 22
21 25 17 19 23 20 19 18 17 19 14 7 8 3 8 18 17 21 16 14 14 20 22 20 19 19 19 19 20 21 23 23 22 21 22 21 20 20 19 20 23 23 22 22
21 22 26 24 20 18 18 15 15 14 14 17 19 8 8 12 13 15 15 13 12 13 14 15 15 15 18 21 23 25 25 25 22 21 21 21 20 21 22 23 24 24 24 24
24 21 21 22 23 21 22 18 14 12 12 5 19 14 14 14 15 17 15 14 13 14 14 16 17 17 17 20 22 22 22 21 19 19 18 18 20 22 24 25 24 23 24 25
29 29 28 24 20 18 21 15 3 1 2 6 8 13 9 17 18 16 14 14 13 13 14 13 13 15 13 13 13 15 16 17 18 20 20 21 22 25 26 27 26 24 24 23
35 19 37 33 33 30 29 26 11 8 5 4 10 8 8 18 19 18 17 16 16 16 17 17 16 16 17 18 19 19 20 21 23 24 24 23 23 23 24 25 26 25 24 24
25 22 20 35 32 30 26 33 28 7 3 1 7 9 10 19 22 20 17 17 16 15 15 17 18 19 19 20 21 21 20 19 18 17 17 18 19 20 19 20 21 22 19 20
23 9 20 25 25 29 28 27 16 13 6 5 9 10 14 26 26 24 22 19 18 18 19 17 14 14 13 14 14 14 15 14 14 15 17 18 21 24 24 26 27 28 29 32
34 21 13 28 30 34 33 26 17 16 9 6 4 7 21 21 25 26 24 22 21 20 18 16 15 15 15 15 16 16 17 19 20 22 24 27 30 33 35 37 38 41 43 43
36 22 18 30 21 31 31 29 33 15 9 16 4 5 14 21 26 25 23 22 21 20 20 19 18 17 17 19 22 24 26 28 30 32 35 38 41 45 47 51 52 54 53 52
40 16 10 8 16 19 34 36 33 32 14 18 8 6 19 21 23 24 23 22 22 22 21 20 21 22 23 25 28 32 36 38 41 43 46 50 52 50 47 45 45 44 43 42
25 24 21 20 15 23 33 36 37 35 22 15 21 13 17 22 25 26 24 22 22 23 23 23 24 27 28 30 33 37 42 45 45 44 42 41 37 36 36 36 35 34 34 34
22 23 24 14 19 16 18 25 34 42 39 24 26 25 20 15 17 20 23 25 26 27 28 30 31 32 36 39 43 46 48 45 39 36 36 35 35 35 35 35 35 35 35 35
29 16 21 18 16 16 16 18 20 26 30 32 29 25 17 18 20 23 26 28 29 30 29 29 30 33 37 40 38 36 35 35 35 36 37 38 40 41 42 43 43 43 41 41
32 30 21 10 17 17 18 24 21 19 20 21 25 27 25 24 24 27 29 30 28 28 27 26 27 27 28 27 26 26 29 31 34 36 38 40 42 43 44 46 46 47 48 48
27 26 23 11 12 4 17 19 25 26 30 32 35 34 31 28 29 30 29 28 28 27 25 21 20 20 22 24 25 27 30 32 35 36 39 41 42 43 44 45 47 51 54 54
26 24 14 10 17 16 20 21 20 27 30 33 35 34 32 29 28 27 27 25 20 14 14 16 18 20 23 26 28 29 31 34 36 37 38 38 39 39 38 38 38 41 46 51
30 29 24 17 8 10 19 21 19 20 21 24 23 20 20 21 21 18 16 11 10 13 16 18 21 24 27 29 31 33 34 35 36 35 33 33 34 37 40 38 34 35 37 40
25 26 31 26 12 10 13 15 15 13 9 15 16 15 15 13 10 8 6 9 14 17 20 22 25 28 30 32 33 34 36 36 35 32 32 34 36 37 32 32 32 35 34 34
18 16 11 11 5 5 13 13 10 6 5 7 7 8 9 10 10 11 13 16 19 23 25 27 28 29 31 34 35 35 35 34 32 31 33 35 36 32 30 33 33 36 34 35
11 9 9 8 7 7 12 8 9 9 6 5 7 9 12 14 15 17 20 23 25 25 26 27 28 29 32 33 34 34 34 34 33 33 33 34 34 31 31 33 34 35 33 38
16 13 12 13 13 15 14 11 9 7 6 7 11 13 15 17 20 23 24 24 24 25 27 29 30 32 33 33 33 34 34 33 33 34 33 34 34 32 31 33 34 36 37 40
15 16 14 13 16 15 13 12 11 10 11 12 14 17 20 22 20 21 23 24 25 27 29 31 34 35 35 34 33 34 33 33 34 33 33 33 33 32 31 33 35 34 36 27
16 17 16 16 14 14 13 13 12 12 14 16 18 21 22 24 25 25 26 28 30 32 34 36 36 36 35 34 34 34 34 33 34 33 33 32 32 31 31 33 33 28 26 18
Wind_Direction
222 223 225 241 241 242 240 223 230 237 250 278 283 285 289 276 271 268 258 246 241 238 231 232 236 237 242 248 254 257 255 258 263 275 277 273 272 272 272 272 273 277 278 279
221 233 231 230 216 225 232 244 247 258 266 275 279 286 305 266 241 250 239 228 227 228 232 232 232 236 242 246 242 257 267 263 261 262 264 265 265 271 278 283 283 276 272 271
225 236 228 227 222 222 229 240 249 262 277 274 286 305 159 200 227 248 246 237 232 231 233 234 235 239 241 240 248 259 260 259 254 256 263 267 268 269 272 273 268 265 269 272
225 222 217 219 224 226 235 245 256 266 265 262 268 265 224 277 263 242 243 240 238 239 238 237 237 245 242 242 251 257 258 259 255 254 259 261 261 263 266 268 267 267 269 274
214 221 222 219 222 217 236 243 254 255 254 266 263 248 220 214 218 219 221 226 231 235 239 242 244 247 252 257 258 261 262 263 263 260 258 257 260 263 265 268 271 271 269 272
224 225 218 219 227 231 239 243 240 245 246 270 259 217 190 204 213 222 225 228 235 242 248 253 252 249 247 248 249 250 251 255 257 257 257 256 259 261 264 267 271 271 269 272
221 225 228 226 216 212 218 207 154 311 213 223 232 206 217 213 212 211 221 230 240 249 251 251 257 260 256 254 252 250 250 253 255 256 257 256 256 260 265 268 268 267 265 267
216 224 227 228 226 225 216 218 191 198 193 233 206 222 228 205 204 214 224 237 251 259 254 251 255 256 261 262 262 261 261 261 260 259 259 261 266 270 272 274 273 272 271 269
211 225 235 230 232 225 205 211 230 222 166 188 203 221 217 207 211 220 226 236 238 240 253 261 265 262 260 263 260 258 254 251 250 252 257 263 265 268 271 271 270 272 275 278
223 209 213 215 217 217 219 217 185 195 154 213 222 220 213 214 209 211 218 224 234 243 249 247 250 256 253 253 247 245 248 252 256 260 261 263 272 272 275 274 275 277 276 279
221 220 206 204 209 213 206 202 201 201 203 166 175 228 219 223 217 217 221 230 233 231 225 228 232 238 246 250 250 250 254 261 268 273 278 281 285 286 288 287 286 284 286 287
208 219 212 210 217 215 221 215 207 195 200 217 203 216 210 210 216 221 225 225 226 226 229 234 240 246 254 261 266 270 272 273 273 276 279 282 286 289 291 290 289 290 288 288
198 209 158 190 221 221 220 220 221 218 228 213 190 216 208 203 213 220 226 227 229 231 233 239 250 260 266 273 279 282 287 290 291 293 295 297 298 299 295 289 287 285 283 281
205 211 210 209 219 218 214 219 221 221 227 223 221 230 217 222 228 229 231 236 239 247 256 259 269 280 284 290 298 303 304 304 304 304 304 303 302 298 295 293 289 285 281 279
208 217 211 222 228 220 226 232 227 224 229 231 245 250 251 245 247 242 241 246 253 260 266 273 279 287 293 297 300 300 299 300 300 298 296 297 297 297 297 296 295 293 291 287
216 217 215 201 193 204 212 215 216 228 236 242 246 246 243 246 239 241 244 249 253 256 261 269 277 284 289 291 292 293 293 294 296 298 298 298 298 297 296 295 294 291 287 285
231 234 225 213 213 224 244 231 233 233 240 242 238 249 246 246 245 239 239 240 245 252 261 268 274 278 282 284 287 290 293 295 297 298 300 299 297 296 293 290 287 283 281 279
221 215 215 214 187 215 242 240 240 235 240 244 249 251 250 247 241 235 235 241 247 250 254 263 272 277 284 290 294 297 298 299 299 299 300 299 298 296 293 288 284 279 274 270
210 214 215 218 212 244 252 247 238 236 241 244 245 247 248 244 239 237 239 240 244 259 270 273 279 287 293 296 299 302 303 304 305 305 305 305 304 302 299 297 292 287 284 279
223 221 218 209 203 209 247 239 232 227 231 234 235 237 240 241 237 235 249 264 270 270 280 289 295 300 301 302 305 306 307 307 307 305 305 307 306 307 306 300 295 297 297 292
219 224 216 213 212 220 216 200 195 192 239 219 221 228 240 246 249 247 259 268 278 284 290 294 296 298 299 300 303 306 308 307 305 301 302 308 313 314 309 305 300 303 300 299
189 176 180 180 155 201 188 182 194 196 182 158 184 204 216 223 236 253 269 281 288 289 288 288 290 293 297 302 305 306 305 304 301 300 305 310 315 312 308 308 307 307 300 302
171 182 175 178 191 161 171 182 176 176 189 199 216 232 237 251 261 271 280 282 281 279 279 283 289 295 300 302 303 303 302 300 298 300 305 310 313 310 306 309 310 306 301 302
174 177 170 155 158 161 172 188 205 228 251 238 239 248 253 259 271 279 279 278 277 280 286 290 294 298 301 303 303 302 300 298 298 300 302 306 310 310 305 310 309 310 304 303
169 178 173 178 180 193 206 223 246 257 258 261 262 259 263 275 277 277 279 281 283 286 290 295 298 300 301 301 299 298 296 294 295 296 300 305 309 311 307 311 312 312 311 303
182 190 193 201 204 219 232 240 246 254 257 259 261 265 272 279 285 285 286 290 292 295 298 300 299 298 297 296 297 295 293 292 293 294 297 302 307 312 307 311 314 314 311 307